Location: Latta
(44.3000°N, 77.3397°W)
Time: 14:30:58
(UTC+00:00)

N. Korean satellite - Visible Passes

Search period start: 30 November 2022 00:00
Search period end: 10 December 2022 00:00
Orbit: 421 x 454 km, 97.3° (Epoch: 29 November)

Date Brightness Start Highest point End Pass type
(mag) Time Alt. Az. Time Alt. Az. Time Alt. Az.
30 Nov 6.4 10:46:10 10° N 10:49:33 59° WNW 10:52:53 10° SSW visible
30 Nov 10.3 22:52:28 10° W 22:52:52 10° W 22:53:15 10° W visible
01 Dec 7.8 10:07:33 10° NNE 10:10:48 38° E 10:13:59 10° SSE visible
01 Dec 8.2 11:41:13 10° NW 11:42:57 13° WNW 11:44:42 10° W visible
01 Dec 8.7 22:10:49 10° SSW 22:13:48 30° W 22:16:52 10° NNW visible
02 Dec 9.7 09:30:07 10° ENE 09:31:47 13° E 09:33:25 10° ESE visible
02 Dec 6.9 11:01:17 10° N 11:04:28 37° WNW 11:07:36 10° SW visible
03 Dec 6.8 10:22:19 10° NNE 10:25:43 62° E 10:29:03 10° S visible
03 Dec 9.4 22:26:11 10° SW 22:28:44 20° W 22:31:20 10° NW visible
04 Dec 9.2 09:44:10 10° NE 09:46:42 19° E 09:49:13 10° SE visible
04 Dec 7.4 11:16:22 10° NNW 11:19:11 25° WNW 11:21:59 10° SW visible
05 Dec 6.2 10:37:02 10° N 10:40:27 81° WNW 10:43:48 10° SSW visible
05 Dec 9.8 22:41:48 10° WSW 22:43:33 13° W 22:45:19 10° WNW visible
06 Dec 8.4 09:58:27 10° NE 10:01:28 29° E 10:04:25 10° SSE visible
06 Dec 7.9 11:31:28 10° NNW 11:33:44 17° WNW 11:35:59 10° WSW visible
06 Dec 8.0 22:01:11 10° S 22:04:23 40° W 22:07:39 10° NNW visible
07 Dec 6.5 10:51:42 10° N 10:55:01 50° WNW 10:58:16 10° SSW visible
08 Dec 7.5 10:12:45 10° NNE 10:16:01 44° E 10:19:14 10° S visible
08 Dec 8.3 11:46:50 10° NW 11:48:06 12° WNW 11:49:22 10° W visible
08 Dec 8.9 22:16:01 10° SSW 22:18:56 26° W 22:21:52 10° NW visible
09 Dec 9.5 09:34:50 10° ENE 09:36:47 14° E 09:38:42 10° SE visible
09 Dec 7.0 11:06:20 10° N 11:09:23 32° WNW 11:12:24 10° SW visible
